TimeEDT,TemperatureF,Dew PointF,Humidity,Sea Level PressureIn,VisibilityMPH,Wind Direction,Wind SpeedMPH,Gust SpeedMPH,PrecipitationIn,Events,Conditions,WindDirDegrees,DateUTC
12:53 AM,68.0,66.0,93,30.12,6.0,Calm,Calm,-,N/A,,Clear,0,2013-08-24 04:53:00
1:53 AM,66.0,64.9,96,30.12,5.0,Calm,Calm,-,N/A,,Clear,0,2013-08-24 05:53:00
2:53 AM,64.9,64.0,97,30.13,5.0,Calm,Calm,-,N/A,,Clear,0,2013-08-24 06:53:00
3:53 AM,64.0,62.1,93,30.14,8.0,ENE,3.5,-,N/A,,Clear,60,2013-08-24 07:53:00
4:53 AM,63.0,62.1,97,30.14,6.0,Calm,Calm,-,N/A,,Clear,0,2013-08-24 08:53:00
5:53 AM,63.0,62.1,97,30.15,8.0,Calm,Calm,-,N/A,,Clear,0,2013-08-24 09:53:00
6:53 AM,62.1,61.0,96,30.18,8.0,Calm,Calm,-,N/A,,Clear,0,2013-08-24 10:53:00
7:53 AM,64.9,63.0,93,30.20,8.0,NE,3.5,-,0.01,,Clear,50,2013-08-24 11:53:00
8:53 AM,69.1,64.0,84,30.22,10.0,NE,3.5,-,N/A,,Clear,40,2013-08-24 12:53:00
9:53 AM,73.9,64.9,73,30.23,10.0,ENE,4.6,-,N/A,,Clear,60,2013-08-24 13:53:00
10:53 AM,79.0,66.9,66,30.24,10.0,East,4.6,-,N/A,,Clear,80,2013-08-24 14:53:00
11:53 AM,82.0,64.9,56,30.24,10.0,ENE,5.8,-,N/A,,Clear,60,2013-08-24 15:53:00
12:53 PM,82.0,62.1,51,30.22,10.0,Variable,4.6,-,N/A,,Partly Cloudy,0,2013-08-24 16:53:00
1:53 PM,84.9,57.0,38,30.21,10.0,NE,6.9,-,N/A,,Partly Cloudy,50,2013-08-24 17:53:00
2:53 PM,86.0,57.0,37,30.20,10.0,Variable,6.9,-,N/A,,Clear,0,2013-08-24 18:53:00
3:53 PM,86.0,57.0,37,30.20,10.0,Variable,4.6,-,N/A,,Clear,0,2013-08-24 19:53:00
4:53 PM,84.9,57.0,38,30.19,10.0,ESE,5.8,-,N/A,,Clear,110,2013-08-24 20:53:00
5:53 PM,84.0,57.0,40,30.19,10.0,ESE,4.6,-,N/A,,Clear,120,2013-08-24 21:53:00
6:53 PM,82.9,57.9,42,30.19,10.0,East,5.8,-,N/A,,Clear,100,2013-08-24 22:53:00
7:53 PM,80.1,60.1,50,30.19,10.0,ENE,3.5,-,N/A,,Clear,70,2013-08-24 23:53:00
9:53 PM,71.1,60.1,68,30.22,10.0,ENE,4.6,-,N/A,,Clear,70,2013-08-25 01:53:00
10:53 PM,70.0,59.0,68,30.23,10.0,East,4.6,-,N/A,,Clear,90,2013-08-25 02:53:00
11:53 PM,70.0,59.0,68,30.24,10.0,Calm,Calm,-,N/A,,Clear,0,2013-08-25 03:53:00